カタログに戻る

DELTA 1 DEB

運用中SSO
NORAD 42629·DEBRIS·🇺🇸 United States

打ち上げ Jun 12, 1975 から Vandenberg Space Force Base

Loading…

次のパス (今後24時間)

TLE

古いSource: Space-Track

元期: Aug 20, 2026, 13:11 UTC

1 42629U 75052LN  26232.54931414  .00000087  00000-0  26865-3 0  9993
2 42629  99.8803 353.5697 0073455 242.8447 116.5173 13.31102526 75960

AllMySatでDELTA 1 DEBをリアルタイム追跡

Download on the App Store